Hourly Data Report for September 03, 2017

All times are specified in Local Standard Time (LST). Add 1 hour to adjust for Daylight Saving Time where and when it is observed.

DOAKTOWN AUTO RCS
NEW BRUNSWICK

46°35'06.090" N
66°00'35.071" W
43.00 m
8101201
71038
ADN

Download Data

Hourly Data (September 2017)
Hourly Data Report for September 3, 2017
Temp Definition
°C
Dew Point Temp Definition
°C
Rel Hum Definition
%
Wind Dir Definition
10's deg

Wind Spd Definition
km/h
Visibility Definition
km
Stn Press Definition
kPa
Hmdx Definition


Wind Chill Definition


Weather Definition


TIME
00:00 7.3 6.4 94 0 1   101.67     LegendNANA
01:00 6.3 5.4 94   0   101.68     LegendNANA
02:00 5.7 4.9 95 7 2   101.69     LegendNANA
03:00 4.9 4.2 95   0   101.72     LegendNANA
04:00 4.6 3.9 95   0   101.74     LegendNANA
05:00 4.0 3.4 96 24 3   101.75     LegendNANA
06:00 3.7 3.1 96 22 3   101.77     LegendNANA
07:00 5.0 4.5 96   0   101.78     LegendNANA
08:00 7.9 6.9 94 23 4   101.82     LegendNANA
09:00 13.2 8.5 73 0 1   101.79     LegendNANA
10:00 15.3 9.1 66 9 3   101.72     LegendNANA
11:00 17.2 9.9 62 9 5   101.64     LegendNANA
12:00 18.8 10.0 56 12 7   101.56     LegendNANA
13:00 20.1 7.2 43 20 10   101.52     LegendNANA
14:00 21.5 8.0 42 18 8   101.42     LegendNANA
15:00 20.7 8.1 44 18 9   101.33     LegendNANA
16:00 20.4 8.0 45 15 10   101.24     LegendNANA
17:00 19.5 8.0 47 16 10   101.22     LegendNANA
18:00 18.5 7.1 47 17 11   101.13     LegendNANA
19:00 16.9 8.6 58 14 5   101.04     LegendNANA
20:00 16.0 8.9 63 12 6   100.97     LegendNANA
21:00 14.8 8.8 67 12 9   100.86     LegendNANA
22:00 14.3 9.0 70 13 9   100.79     LegendNANA
23:00 13.8 9.3 74 10 10   100.63     LegendNANA

Notes on Data Quality.

Legend

  • E = Estimated
  • M = Missing
  • NA = Not Available
  • ‡ = Partner data that is not subject to review by the National Climate Archives
Date modified: